EW2323 Weather Reports


time (UTC)temp
C
wind
direction
speed
KPH
gust
KPH
rain 1hr
cm
rain 24hr
cm
rain mn
cm
humidity
%
barometer
mb
20260905204543 35 344 0.0 8.0 0.00 0.00 0.00 53 1009.7
20260905203039 35 9 0.0 4.8 0.00 0.00 0.00 53 1010.1
20260905201537 35 345 0.0 3.2 0.00 0.00 0.00 53 1010.2
20260905200037 35 351 0.0 6.4 0.00 0.00 0.00 52 1010.4
20260905194530 35 70 0.0 3.2 0.00 0.00 0.00 52 1010.5
20260905193027 35 351 0.0 8.0 0.00 0.00 0.00 52 1010.8
20260905191527 35 46 0.0 0.0 0.00 0.00 0.00 53 1010.9
20260905190029 35 342 0.0 6.4 0.00 0.00 0.00 53 1011.2
20260905184520 35 129 0.0 4.8 0.00 0.00 0.00 54 1011.4
20260905183019 35 119 0.0 4.8 0.00 0.00 0.00 54 1011.7
20260905181517 34 102 0.0 4.8 0.00 0.00 0.00 54 1011.8
20260905180018 34 237 0.0 1.6 0.00 0.00 0.00 52 1011.9
20260905174513 33 319 0.0 1.6 0.00 0.00 0.00 54 1012.0
20260905173008 33 94 3.2 8.0 0.00 0.00 0.00 55 1012.1
20260905171504 32 102 0.0 9.7 0.00 0.00 0.00 58 1012.3
20260905170004 32 130 0.0 9.7 0.00 0.00 0.00 59 1012.5
20260905164606 32 119 0.0 14.5 0.00 0.00 0.00 60 1012.9
20260905163056 31 103 1.6 3.2 0.00 0.00 0.00 62 1013.2
20260905161551 31 138 0.0 9.7 0.00 0.00 0.00 64 1013.2
20260905160055 30 113 1.6 9.7 0.00 0.00 0.00 65 1013.2
20260905154550 30 136 1.6 12.9 0.00 0.00 0.00 67 1013.3
20260905153043 30 153 1.6 8.0 0.00 0.00 0.00 65 1013.3
20260905151539 29 151 0.0 8.0 0.00 0.00 0.00 68 1013.4
20260905150035 28 113 0.0 6.4 0.00 0.00 0.00 72 1013.5
20260905144531 27 136 0.0 6.4 0.00 0.00 0.00 76 1013.7
20260905143029 27 283 0.0 11.3 0.00 0.00 0.00 79 1013.7
20260905141525 26 158 0.0 8.0 0.00 0.00 0.00 82 1013.9
20260905140022 25 177 0.0 8.0 0.00 0.00 0.00 87 1013.9
20260905134517 25 137 0.0 0.0 0.00 0.00 0.00 88 1014.2
20260905133023 25 136 0.0 9.7 0.00 0.00 0.00 87 1014.3
20260905131515 26 7 0.0 3.2 0.00 0.00 0.00 85 1014.5
20260905130013 26 7 0.0 4.8 0.00 0.00 0.00 84 1014.6
20260905124511 26 127 0.0 0.0 0.00 0.00 0.00 86 1013.5
20260905123009 25 128 0.0 1.6 0.00 0.00 0.00 88 1013.4
20260905121506 25 356 0.0 0.0 0.00 0.00 0.00 91 1013.1
20260905120007 25 356 0.0 0.0 0.00 0.00 0.00 91 1013.4
20260905114610 25 356 0.0 0.0 0.00 0.00 0.00 92 1013.0
20260905113100 25 346 0.0 0.0 0.00 0.00 0.00 92 1012.9
20260905111651 25 346 0.0 3.2 0.00 0.00 0.00 93 1012.6
20260905110056 25 351 0.0 0.0 0.00 0.00 0.00 93 1012.1
20260905104555 25 351 0.0 0.0 0.00 0.00 0.00 92 1011.8
20260905103101 25 351 0.0 0.0 0.00 0.00 0.00 92 1011.7
20260905101552 25 351 0.0 0.0 0.00 0.00 0.00 92 1011.9
20260905100057 25 351 0.0 0.0 0.00 0.00 0.00 91 1011.9
20260905094550 25 351 0.0 0.0 0.00 0.00 0.00 91 1011.9
20260905093103 25 351 0.0 0.0 0.00 0.00 0.00 90 1011.7
20260905091548 26 351 0.0 0.0 0.00 0.00 0.00 90 1011.6
20260905090045 26 351 0.0 0.0 0.00 0.00 0.00 89 1011.6
20260905084543 26 351 0.0 0.0 0.00 0.00 0.00 88 1011.4
20260905083042 26 351 0.0 0.0 0.00 0.00 0.00 88 1011.3
20260905081540 26 351 0.0 0.0 0.00 0.00 0.00 88 1011.3
20260905080040 26 351 0.0 0.0 0.00 0.00 0.00 88 1011.3
20260905074540 26 351 1.6 4.8 0.00 0.00 0.00 88 1011.5
20260905073039 26 351 0.0 0.0 0.00 0.00 0.00 87 1011.3
20260905071538 26 351 0.0 0.0 0.00 0.00 0.00 86 1011.5
20260905070047 26 351 0.0 0.0 0.00 0.00 0.00 86 1011.6
20260905064545 26 351 0.0 0.0 0.00 0.00 0.00 86 1011.8
20260905063030 26 351 0.0 0.0 0.00 0.00 0.00 86 1012.1
20260905061528 26 351 0.0 0.0 0.00 0.00 0.00 87 1012.3
20260905060027 26 351 0.0 0.0 0.00 0.00 0.00 86 1012.5
20260905054534 26 351 0.0 0.0 0.00 0.00 0.00 86 1012.5
20260905053025 27 351 0.0 0.0 0.00 0.00 0.00 86 1012.4
20260905051533 27 351 0.0 0.0 0.00 0.00 0.00 85 1012.5
20260905050019 27 351 0.0 0.0 0.00 0.00 0.00 84 1012.5
20260905044518 27 351 0.0 0.0 0.00 0.00 0.00 83 1012.6
20260905043016 27 351 0.0 0.0 0.00 0.00 0.00 83 1012.6
20260905041514 27 351 0.0 0.0 0.00 0.00 0.00 81 1012.5
20260905040021 27 351 0.0 0.0 0.00 0.00 0.00 81 1012.5
20260905034524 28 351 0.0 0.0 0.00 0.00 0.00 79 1012.6
20260905033021 28 351 0.0 0.0 0.00 0.00 0.00 77 1012.5
20260905031511 28 351 0.0 0.0 0.00 0.00 0.00 76 1012.6
20260905030011 28 351 0.0 0.0 0.00 0.00 0.00 75 1012.7
20260905024511 29 351 0.0 0.0 0.00 0.00 0.00 74 1012.7
20260905023010 29 351 0.0 0.0 0.00 0.00 0.00 73 1012.5
20260905021520 30 351 0.0 0.0 0.00 0.00 0.00 72 1012.5
20260905020013 30 351 0.0 0.0 0.00 0.00 0.00 72 1012.4
20260905014508 30 351 0.0 0.0 0.00 0.00 0.00 70 1012.3
20260905013012 30 351 0.0 0.0 0.00 0.00 0.00 69 1012.1
20260905011507 31 351 0.0 0.0 0.00 0.00 0.00 67 1012.0
20260905010006 31 351 0.0 0.0 0.00 0.00 0.00 67 1011.8
20260905004506 31 351 0.0 0.0 0.00 0.00 0.00 66 1011.7
20260905003009 31 351 0.0 0.0 0.00 0.00 0.00 64 1011.7
20260905001506 32 351 0.0 0.0 0.00 0.00 0.00 63 1011.5
20260905000005 32 351 0.0 0.0 0.00 0.00 0.00 62 1011.5
20260904234505 33 351 0.0 0.0 0.00 0.00 0.00 59 1011.5
20260904233004 33 351 0.0 0.0 0.00 0.00 0.00 58 1011.7
20260904231502 34 351 0.0 0.0 0.00 0.00 0.00 56 1011.7
20260904230001 35 351 0.0 0.0 0.00 0.00 0.00 54 1011.8
20260904224559 35 351 0.0 1.6 0.00 0.00 0.00 52 1011.8
20260904223100 35 351 0.0 0.0 0.00 0.00 0.00 52 1011.9
20260904221604 35 351 0.0 3.2 0.00 0.00 0.00 51 1011.9
20260904220109 35 351 0.0 0.0 0.00 0.00 0.00 51 1011.8
20260904214557 36 351 0.0 4.8 0.00 0.00 0.00 51 1011.9
20260904213057 36 351 0.0 4.8 0.00 0.00 0.00 49 1012.0
20260904211557 36 356 0.0 6.4 0.00 0.00 0.00 49 1012.0
20260904210100 36 340 0.0 6.4 0.00 0.00 0.00 48 1012.1